This is the latest recevied weather packets stored in our database for station/object KC0RPY. If no packets are shown the sender has not sent any weather packets the latest 10 day(s).
| Time | Temp. | Humidity | Pressure | Rain* | Wind** | Luminosity | Snow |
|---|---|---|---|---|---|---|---|
| 1777816010 | 14.44° C | 56% | 1015.7 hPa | 0 mm | - | 269 W/m² | - |
| 1777815708 | 14.44° C | 56% | 1015.7 hPa | 0 mm | - | 91 W/m² | - |
| 1777815405 | 13.89° C | 57% | 1015.7 hPa | 0 mm | - | 168 W/m² | - |
| 1777815102 | 13.89° C | 57% | 1015.7 hPa | 0 mm | - | 216 W/m² | - |
| 1777814798 | 13.33° C | 57% | 1016 hPa | 0 mm | - | 60 W/m² | - |
| 1777814494 | 13.33° C | 57% | 1015.3 hPa | 0 mm | - | 66 W/m² | - |
| 1777814186 | 12.78° C | 58% | 1015.7 hPa | 0 mm | - | 76 W/m² | - |
| 1777813883 | 12.22° C | 58% | 1015.3 hPa | 0 mm | - | 51 W/m² | - |
| 1777813581 | 12.22° C | 60% | 1015.7 hPa | 0 mm | - | 62 W/m² | - |
| 1777813278 | 11.67° C | 60% | 1015.7 hPa | 0 mm | - | 49 W/m² | - |
| 1777812975 | 11.11° C | 60% | 1015.7 hPa | 0 mm | - | 52 W/m² | - |
| 1777812673 | 11.11° C | 61% | 1015.7 hPa | 0 mm | - | 54 W/m² | - |
| 1777812369 | 10.56° C | 61% | 1015.3 hPa | 0 mm | - | 44 W/m² | - |
| 1777812068 | 10.56° C | 61% | 1015.3 hPa | 0 mm | - | 41 W/m² | - |
| 1777811766 | 10.56° C | 60% | 1015.7 hPa | 0 mm | - | 40 W/m² | - |
| 1777811462 | 10.56° C | 60% | 1015.7 hPa | 0 mm | - | 37 W/m² | - |
| 1777811158 | 10.56° C | 60% | 1015.7 hPa | 0 mm | - | 35 W/m² | - |
| 1777810856 | 10.56° C | 59% | 1015.7 hPa | 0 mm | - | 33 W/m² | - |
| 1777810552 | 10.56° C | 60% | 1016 hPa | 0 mm | - | 31 W/m² | - |
| 1777810249 | 10° C | 59% | 1015.7 hPa | 0 mm | - | 29 W/m² | - |
| 1777809945 | 10° C | 59% | 1015.7 hPa | 0 mm | - | 26 W/m² | - |
| 1777809643 | 10° C | 58% | 1016 hPa | 0 mm | - | 24 W/m² | - |
| 1777809341 | 10° C | 58% | 1016 hPa | 0 mm | - | 21 W/m² | - |
| 1777809038 | 10° C | 58% | 1016 hPa | 0 mm | - | 18 W/m² | - |
| 1777808735 | 10° C | 57% | 1016 hPa | 0 mm | - | 15 W/m² | - |
* Rain latest hour (hover to see other rain measurements)
** Current wind speed in m/s (hover to see current wind gust speed)